Flag for Switzerland Weather past 2 weeks in Geneva, Geneva, Switzerland

Now
78 °F

Warm.


Feels Like: 79 °F
Forecast: 61 / 82 °F
Wind: 2 mph from North

Location: Geneve-Cointrin

Current Time: Aug 3, 2015 at 9:41:15 PM

Latest Report: Aug 3, 2015 at 9:00 PM


Visibility: N/A

Pressure: 29.93 "Hg

Humidity: 46%

Dew point: 55 °F

Location of GenevaLocation

Historic Weather in Geneva — Graph

°F

Geneva temperature yesterday

Maximum temperature yesterday: 78 °F (at 7:00 PM)
Minimum temperature yesterday: 58 °F (at 7:00 AM)
Average temperature yesterday: 68 °F

Past Weeks' High & Low Weather Summary

 TemperatureHumidityPressure
High94 °F (Jul 21, 4:00 PM)94% (Jul 23, 3:00 AM)30.10 "Hg (Jul 23, 3:00 AM)
Low52 °F (Jul 30, 6:00 AM)27% (Jul 21, 7:00 PM)29.66 "Hg (Jul 24, 6:00 PM)
Average71 °F59%29.94 "Hg
* Reported Jul 19 8:00 PM — Aug 3 8:00 PM, Geneva, Weather by CustomWeather, © 2015

Note: Actual official high and low records may vary slightly from our data, if they occured in-between our weather recording intervals... More about our weather records

Advertising

Geneva weather history for previous 24 hours

 ConditionsComfort  
Time TempWeatherWind HumidityBarometerVisibility
8:00 PM
Mon, Aug 3
84 °FPassing clouds.6 mph39%29.91 "Hg28 mi
7:00 PM87 °FPleasantly warm.6 mph32%29.91 "HgN/A
6:00 PM87 °FPleasantly warm.6 mph32%29.93 "HgN/A
5:00 PM87 °FPassing clouds.8 mph34%29.94 "Hg31 mi
4:00 PM86 °FPleasantly warm.6 mph35%29.96 "HgN/A
3:00 PM85 °FWarm.7 mph44%29.98 "HgN/A
2:00 PM82 °FPassing clouds.6 mph48%30.00 "Hg31 mi
1:00 PM79 °FWarm.5 mph53%30.02 "HgN/A
12:00 PM76 °FMild.7 mph58%30.04 "HgN/A
11:00 AM75 °FPassing clouds.3 mph62%30.05 "Hg31 mi
10:00 AM72 °FMild.2 mph64%30.06 "HgN/A
9:00 AM68 °FMild.No wind76%30.08 "HgN/A
8:00 AM64 °FPassing clouds.No wind83%30.08 "Hg37 mi
7:00 AM60 °FCool.1 mph90%30.09 "HgN/A
6:00 AM60 °FCool.2 mph89%30.09 "HgN/A
5:00 AM60 °FPassing clouds.No wind90%30.08 "Hg37 mi
4:00 AM61 °FCool.1 mph89%30.08 "HgN/A
3:00 AM61 °FCool.1 mph90%30.07 "HgN/A
2:00 AM62 °FPassing clouds.1 mph88%30.06 "Hg37 mi
1:00 AM63 °FMild.1 mph85%30.06 "HgN/A
12:00 AM64 °FMild.1 mph84%30.06 "HgN/A
10:00 PM
Sun, Aug 2
69 °FMild.1 mph72%30.03 "HgN/A
9:00 PM73 °FMild.2 mph61%30.00 "HgN/A
Weather by CustomWeather, © 2015

See weather overviewHow to use our weather pages